Total_Precipitation_Accumulation
1.78 2.13 2.59 3.28 3.75 3.92 4.00 4.16 4.17 4.25 4.29 4.27 4.28 4.45 4.65 4.70 4.67 4.77 4.80 4.63 4.55 4.70 5.01 5.03 4.89 4.58 4.27 4.08 4.09 4.09 3.87 3.55 3.41 3.47 3.27 2.90 2.55 2.46 2.35 2.30 2.30 2.14 2.13
1.67 2.12 2.57 3.04 3.33 3.68 3.88 4.09 4.12 4.31 4.56 4.95 5.46 5.73 5.84 5.75 5.59 5.46 5.37 5.22 5.10 5.17 5.29 5.37 5.03 4.68 4.48 4.22 3.99 3.96 3.80 3.54 3.50 3.54 3.58 3.21 2.91 2.43 2.09 2.16 2.16 2.10 2.12
1.65 1.99 2.20 2.59 2.90 3.28 3.62 3.89 4.23 4.65 5.16 5.83 6.62 6.91 6.66 6.25 6.05 5.72 5.64 5.42 5.19 5.15 5.24 4.96 4.72 4.53 4.34 4.13 3.91 3.90 3.86 3.53 3.42 3.54 3.76 3.44 3.09 2.72 2.37 2.13 2.04 2.10 2.13
1.61 1.77 2.03 2.32 2.52 2.90 3.37 3.83 4.40 5.02 5.68 6.30 6.77 6.96 6.84 6.55 6.24 5.79 5.39 5.02 4.71 4.52 4.41 4.30 4.09 4.00 3.87 3.70 3.53 3.56 3.61 3.49 3.24 3.18 3.06 3.01 2.88 2.83 2.57 2.31 2.11 2.08 2.11
1.47 1.61 1.82 2.07 2.38 2.82 3.31 3.80 4.31 5.05 5.55 6.10 6.53 6.76 6.75 6.62 6.20 5.51 4.85 4.44 4.10 3.84 3.57 3.37 3.28 3.29 3.25 3.07 2.89 2.89 2.93 2.91 2.85 2.80 2.65 2.62 2.61 2.56 2.45 2.38 2.30 2.21 2.04
1.63 1.63 1.71 1.89 2.33 2.74 3.26 3.64 3.98 4.71 5.41 5.92 6.28 6.60 6.55 6.31 5.67 4.95 4.38 4.01 3.70 3.44 3.17 3.00 2.87 2.82 2.74 2.59 2.45 2.41 2.45 2.49 2.51 2.58 2.56 2.46 2.40 2.33 2.33 2.20 2.14 2.15 2.01
1.55 1.56 1.77 1.90 2.37 2.77 3.09 3.38 3.64 4.06 4.59 5.06 5.39 5.61 5.66 5.42 4.96 4.51 4.03 3.67 3.42 3.15 2.83 2.49 2.34 2.28 2.29 2.27 2.22 2.19 2.20 2.24 2.25 2.21 2.21 2.23 2.17 2.19 2.26 2.26 2.15 2.05 1.94
1.50 1.50 1.74 1.97 2.12 2.34 2.60 2.91 3.14 3.41 3.69 3.95 4.22 4.21 4.22 4.19 3.98 3.60 3.16 2.88 2.60 2.43 2.28 2.06 1.93 1.90 1.93 1.94 1.96 1.92 1.87 1.92 2.03 2.03 2.12 2.09 2.03 2.11 2.17 2.27 2.36 2.33 2.13
1.45 1.54 1.73 1.87 1.95 2.08 2.27 2.45 2.55 2.75 2.83 2.81 2.82 2.90 2.90 2.94 2.90 2.75 2.47 2.15 1.89 1.75 1.71 1.68 1.65 1.53 1.54 1.63 1.68 1.65 1.63 1.71 1.76 1.80 1.90 1.96 1.94 2.00 1.99 2.07 2.25 2.50 2.44
1.40 1.52 1.65 1.82 1.93 1.94 2.09 2.19 2.14 2.17 2.22 2.26 2.19 2.12 2.19 2.25 2.26 2.21 2.05 1.86 1.67 1.51 1.42 1.41 1.36 1.26 1.24 1.31 1.42 1.44 1.51 1.62 1.60 1.57 1.62 1.65 1.70 1.90 1.99 2.05 2.18 2.40 2.53
1.44 1.57 1.57 1.61 1.63 1.68 1.72 1.79 1.79 1.81 1.81 1.80 1.83 1.82 1.79 1.77 1.78 1.81 1.77 1.66 1.55 1.43 1.35 1.27 1.26 1.24 1.15 1.13 1.22 1.23 1.28 1.42 1.46 1.41 1.44 1.48 1.59 1.73 1.77 1.89 2.02 2.26 2.51
1.60 1.65 1.60 1.48 1.49 1.60 1.65 1.64 1.63 1.57 1.59 1.62 1.67 1.73 1.59 1.51 1.53 1.54 1.52 1.41 1.38 1.33 1.27 1.21 1.18 1.14 1.09 1.08 1.08 1.05 1.07 1.18 1.23 1.27 1.33 1.25 1.32 1.50 1.63 1.77 1.86 2.00 2.18
1.79 1.84 1.75 1.58 1.52 1.55 1.55 1.43 1.37 1.36 1.27 1.28 1.40 1.51 1.39 1.30 1.31 1.30 1.27 1.27 1.24 1.21 1.14 1.10 1.04 0.99 1.01 1.06 1.05 1.00 1.00 1.00 1.04 1.14 1.23 1.25 1.37 1.46 1.58 1.70 1.76 1.89 1.93
1.74 1.83 1.81 1.63 1.59 1.49 1.42 1.25 1.21 1.22 1.19 1.17 1.19 1.25 1.27 1.24 1.19 1.18 1.15 1.09 1.05 1.03 0.98 0.92 0.91 0.92 0.89 0.87 0.89 0.90 0.93 0.98 0.99 1.04 1.10 1.17 1.29 1.42 1.61 1.66 1.74 1.88 2.00
1.78 1.89 1.82 1.60 1.57 1.53 1.46 1.25 1.15 1.16 1.15 1.19 1.20 1.18 1.18 1.10 1.10 1.13 1.10 0.98 0.94 0.88 0.86 0.85 0.85 0.85 0.82 0.74 0.76 0.86 0.90 1.01 1.05 1.07 1.06 1.05 1.11 1.27 1.41 1.47 1.68 1.94 2.10
1.83 1.78 1.69 1.61 1.58 1.55 1.49 1.31 1.16 1.11 1.13 1.22 1.24 1.20 1.18 1.11 1.08 1.10 1.10 1.04 1.01 0.97 0.89 0.88 0.84 0.78 0.67 0.68 0.69 0.75 0.88 0.99 1.03 1.12 1.11 0.97 0.94 0.97 1.03 1.12 1.28 1.58 1.84
2.05 1.97 1.82 1.75 1.75 1.66 1.48 1.38 1.23 1.16 1.16 1.19 1.16 1.21 1.21 1.13 1.05 1.00 1.10 1.10 1.09 1.01 0.95 0.91 0.84 0.79 0.70 0.64 0.58 0.60 0.74 0.93 1.03 1.09 1.11 0.93 0.79 0.92 1.02 1.04 1.05 1.18 1.41
2.03 1.97 1.88 1.86 1.79 1.67 1.56 1.46 1.28 1.15 1.11 1.11 1.06 1.08 1.11 1.12 1.06 1.05 1.08 1.10 1.14 1.11 0.99 0.89 0.87 0.86 0.67 0.61 0.57 0.58 0.69 0.86 0.92 0.94 0.98 1.03 1.03 0.96 1.01 1.06 1.18 1.36 1.47
1.85 1.81 1.79 1.83 1.75 1.61 1.50 1.42 1.28 1.12 1.01 0.99 1.00 0.95 0.93 0.94 0.96 0.95 1.03 1.14 1.17 1.10 0.94 0.86 0.90 0.87 0.70 0.62 0.58 0.59 0.71 0.83 0.84 0.77 0.76 0.82 0.88 0.85 0.92 1.10 1.36 1.56 1.74
1.64 1.57 1.51 1.54 1.60 1.51 1.41 1.36 1.31 1.17 0.99 0.87 0.81 0.81 0.86 0.86 0.88 0.93 1.01 1.03 1.08 1.06 0.89 0.78 0.79 0.75 0.67 0.58 0.53 0.56 0.64 0.77 0.80 0.85 0.81 0.83 0.84 0.85 0.97 1.18 1.52 1.73 1.83
1.53 1.41 1.32 1.32 1.33 1.27 1.19 1.18 1.14 1.03 0.81 0.71 0.68 0.71 0.74 0.75 0.76 0.88 0.93 0.93 0.90 0.93 0.90 0.81 0.75 0.69 0.58 0.51 0.50 0.51 0.55 0.65 0.76 0.83 0.90 0.94 0.94 0.89 0.99 1.20 1.46 1.68 1.74
1.42 1.30 1.24 1.14 1.08 1.03 1.05 1.05 0.94 0.79 0.67 0.63 0.62 0.63 0.65 0.58 0.59 0.80 0.85 0.83 0.88 0.84 0.83 0.86 0.83 0.70 0.58 0.45 0.38 0.39 0.43 0.52 0.77 0.89 0.91 0.94 0.95 0.94 1.06 1.18 1.44 1.71 1.87
1.24 1.12 1.01 0.91 0.84 0.91 0.98 0.93 0.78 0.65 0.59 0.64 0.68 0.62 0.56 0.58 0.56 0.62 0.68 0.73 0.80 0.75 0.70 0.74 0.73 0.64 0.53 0.43 0.30 0.27 0.31 0.42 0.58 0.76 0.91 0.91 0.87 1.00 1.27 1.45 1.62 1.81 1.94
1.06 0.94 0.91 0.84 0.82 0.81 0.76 0.71 0.56 0.51 0.57 0.66 0.69 0.65 0.59 0.57 0.52 0.51 0.47 0.49 0.55 0.58 0.64 0.66 0.64 0.59 0.52 0.39 0.31 0.30 0.32 0.39 0.49 0.63 0.82 0.98 1.05 1.20 1.49 1.73 1.86 1.93 1.89
0.89 0.81 0.86 0.83 0.78 0.69 0.64 0.57 0.51 0.51 0.63 0.66 0.62 0.59 0.54 0.51 0.50 0.44 0.39 0.37 0.39 0.44 0.50 0.53 0.55 0.54 0.45 0.33 0.32 0.32 0.33 0.39 0.47 0.58 0.80 1.00 1.12 1.33 1.56 1.69 1.71 1.71 1.66
0.74 0.72 0.76 0.75 0.68 0.62 0.60 0.53 0.46 0.44 0.55 0.59 0.59 0.53 0.50 0.47 0.42 0.40 0.39 0.33 0.29 0.30 0.31 0.31 0.32 0.34 0.35 0.32 0.29 0.31 0.36 0.42 0.50 0.60 0.88 1.08 1.18 1.36 1.50 1.61 1.58 1.50 1.45